Miscellaneous Local Product
Issued by NWS Hastings, NE

Home | Current Version | Previous Version | Graphics & Text | Print | Product List | Glossary On
Versions: 1 2 3 4 5 6 7 8 9 10 11 12 13 14 15 16 17 18 19 20 21 22 23 24 25 26 27 28 29 30 31 32 33 34 35 36 37 38 39 40 41 42 43 44 45 46 47 48 49 50
000
AXUS43 KGID 221302
MISGRI

GID CWA HOURLY WEATHER ROUNDUP
NATIONAL WEATHER SERVICE HASTINGS NE
700 AM CST SAT NOV 22 2014

NOTE: "FAIR" INDICATES FEW OR NO CLOUDS BELOW 12,000 FEET WITH NO
SIGNIFICANT WEATHER AND/OR OBSTRUCTIONS TO VISIBILITY.

...SOUTH CENTRAL NEBRASKA...

CITY           SKY/WX    TMP DP  RH WIND       PRES   REMARKS
GRAND ISLAND   CLOUDY   N/A N/A N/A S13       29.84F FOG
HASTINGS       FOG       34  33  96 S10       29.85F VSB 1/2 WCI  26
KEARNEY        CLOUDY    27  25  93 S7        29.84F VSB 3/4 WCI  19
ORD            FOG       21  19  92 CALM      29.78F VSB 1/4
YORK           HAZE      36  27  69 SW10G21   29.85F VSB 3/4 WCI  28
AURORA         FOG       36  36 100 SW13      29.84F VSB 1/2 WCI  27
LEXINGTON      CLEAR     19  17  93 NW3       29.82F
HOLDREGE       FOG       25  24  96 S3        29.83F VSB 1
HEBRON         FOG       38  36  93 SW9       29.90S VSB 1   WCI  31

...NEBRASKA PANHANDLE...

CITY           SKY/WX    TMP DP  RH WIND       PRES   REMARKS
CHADRON        MOCLDY    30  22  72 SW8       29.64F WCI  22
ALLIANCE       CLEAR     25  18  74 S7        29.71F WCI  17
SCOTTSBLUFF    PTCLDY    25  19  78 E7        29.74F WCI  17
SIDNEY         CLEAR     28  20  71 SW12      29.77F WCI  18

...WESTERN AND NORTH CENTRAL NEBRASKA...

CITY           SKY/WX    TMP DP  RH WIND       PRES   REMARKS
VALENTINE      CLEAR     25  21  85 SW7       29.69F WCI  17
AINSWORTH      CLEAR     32  24  72 SW10      29.71F WCI  24
ONEILL         CLEAR     30  29  94 SW5       29.75S WCI  25
BROKEN BOW     CLEAR     26  22  84 W7        29.77F WCI  18
IMPERIAL       CLEAR     24  15  68 W5        29.81F WCI  18
NORTH PLATTE   CLEAR     16  13  88 NW5       29.81F WCI   9
MCCOOK         CLEAR     21  17  84 W7        29.84F WCI  12

...EASTERN NEBRASKA...

CITY           SKY/WX    TMP DP  RH WIND       PRES   REMARKS
NORFOLK        CLOUDY    35  33  92 S18       29.79F FOG     WCI  24
SO SIOUX CITY  CLOUDY    38  35  89 S12       29.83F FOG     WCI  30
TEKAMAH        CLOUDY    38  36  92 S12       29.86S FOG     WCI  30
COLUMBUS       CLOUDY    36  34  93 SW9       29.85F WCI  29
ALBION         CLOUDY    30  28  92 S7        29.80F FOG     WCI  23
OMAHA EPPLEY   CLOUDY    39  37  92 S9        29.89F FOG     WCI  33
OFFUTT AFB     CLOUDY    39  37  93 S5        29.89S
MILLARD        CLOUDY    40  37  92 SW5       29.89F FOG
LINCOLN        CLOUDY    38  36  92 SW9       29.89F FOG     WCI  31
NEBRASKA CITY  CLOUDY    40  40 100 SW9       29.89F FOG     WCI  34
BEATRICE       FOG       38  38 100 SW9       29.90S VSB 3/4 WCI  32
FALLS CITY     CLOUDY    41  40  96 SW7       29.92F FOG

...NORTHERN KANSAS...

CITY           SKY/WX    TMP DP  RH WIND       PRES   REMARKS
GOODLAND       CLEAR     38  21  50 SW12      29.85F WCI  30
HILL CITY      CLEAR     23  20  88 CALM      29.88S
NORTON         SUNNY     19  16  86 SW6       29.84S WCI  11
PHILLIPSBURG   FOG       25  25 100 CALM      29.89S VSB 1/4
SMITH CENTER   FOG       28  28 100 S6        29.89F VSB 1/4 WCI  22
BELOIT         CLOUDY    37  37 100 S9        29.90F WCI  31
HAYS           CLOUDY    30  25  80 SW3       29.88F VSB 1/4
RUSSELL        FOG       33  33 100 SW9       29.88F VSB 1/4 WCI  25
CONCORDIA      FOG       38  38 100 SW7       29.90F VSB 1/2 WCI  33
SALINA         CLOUDY    41  39  93 SW5       29.93F FOG
TOPEKA         FOG       43  42  97 SE5       29.95F VSB 3/4



USA.gov is the U.S. government's official web portal to all federal, state and local government web resources and services.